Regional Weather Roundup
Issued by NWS Wakefield, VA

Home | Current Version | Previous Version | Graphics & Text | Print | Product List | Glossary On
Versions: 1 2 3 4 5 6 7 8 9 10 11 12 13 14 15 16 17 18 19 20 21 22 23 24 25 26 27 28 29 30 31 32 33 34 35 36 37 38 39 40 41 42 43 44 45 46 47 48 49 50
000
ASUS41 KAKQ 222215
RWRAKQ

REGIONAL WEATHER ROUNDUP
NATIONAL WEATHER SERVICE WAKEFIELD VA
500 PM EST THU FEB 22 2018

Note: "fair" indicates few or no clouds below 12,000 feet with no
significant weather and/or obstructions to visibility. * = Denotes
station may not report precipitation (e.g., rain,snow,etc.),
thunder or fog.

VAZ042-051-052>054-056-222300-
NORTHERN VIRGINIA

CITY           SKY/WX    TMP DP  RH WIND       PRES   REMARKS
WASH NATIONAL  DRIZZLE   50  48  93 NE14      30.52R FOG
DULLES         LGT RAIN  45  44  97 N12       30.53R VSB 1
FORT BELVOIR   CLOUDY    50  47  88 N8        30.50R
QUANTICO       DRIZZLE   50  47  89 N15       30.51R
FREDERICKSBRG* CLOUDY    54  49  84 N7        30.47R
STAFFORD*      CLOUDY    50  46  86 N14G21    30.53R
WARRENTON      CLOUDY    47  43  85 N8        30.51R FOG
CULPEPER*      DRIZZLE   47  44  88 N13G18    30.51R
MANASSAS*      LGT RAIN  45  44  97 N16       30.52R FOG
LEESBURG*      LGT RAIN  43  43 100 NE9G16    30.55R
WINCHESTER     DRIZZLE   39  37  93 N5        30.54R
FRONT ROYAL*   CLOUDY    41  41 100 NE7       30.52R
LURAY*         DRIZZLE   45  41  87 N10       30.49R
$$

VAZ048-049-060>072-079>083-222300-
CENTRAL AND SOUTH CENTRAL VIRGINIA

CITY           SKY/WX    TMP DP  RH WIND       PRES   REMARKS
RICHMOND       CLOUDY    61  57  87 N10       30.39R
CHESTERFIELD*  CLOUDY    64  58  80 N12         N/A
PETERSBURG*    CLOUDY    75  60  59 S3        30.37R
HANOVER        CLOUDY    55  53  93 N8        30.43R
TAPPAHANNOCK*  CLOUDY    53  51  95 N9        30.44R
QUINTON*       CLOUDY    60  58  90 NW7       30.39R
CHARLOTTSVILLE CLOUDY    53  45  74 NE14      30.44R
GORDONSVILLE*  CLOUDY    52  45  77 N10G18    30.45R
ORANGE*        CLOUDY    50  43  76 N15G25    30.46R
LOUISA*        CLOUDY    53  44  71 N12       30.48R
BUMPASS*       CLOUDY    53  52  95 N3        30.43R
FARMVILLE*     CLOUDY    65  63  93 N8        30.35S
CREWE*         CLOUDY    74  66  76 S5        30.37R
FORT PICKETT*  FAIR      75  61  62 SW8       30.37R
CHASE CITY*    FAIR      74  61  62 SW6       30.36R
CLARKSVILLE*   MOCLDY    73  63  68 SW3       30.36R
SOUTH HILL*    FAIR      74  64  70 S10       30.43R
LAWRENCEVILLE* FAIR      75  60  60 SW7       30.37R
EMPORIA*       FAIR      77  59  53 S6        30.38R
$$

VAZ088>098-222300-
SOUTHEAST VIRGINIA

CITY           SKY/WX    TMP DP  RH WIND       PRES   REMARKS
NORFOLK        FAIR      77  60  55 SW15      30.36R
VIRGINIA BEACH FAIR      77  57  50 SW13      30.36S
NORFOLK NAVAL  PTCLDY    76  60  57 SW8       30.38
WEST POINT*    CLOUDY    60  54  79 N7        30.42R
SALUDA*        CLOUDY    54  54 100 N6        30.41R
NEWPORT NEWS   FAIR      75  62  64 SW10      30.36R
LANGLEY AFB    FAIR      76  64  67 S7        30.36R
FORT EUSTIS    FAIR      74  62  66 SW5       30.34R
WILLIAMSBURG*  FAIR      81  63  54 SW5       30.37R
HR EXEC AP*    FAIR      77  60  55 SW9       30.37S
FRANKLIN*      FAIR      76  61  60 S9        30.37R
US460-WAKEFLD  FAIR      76  62  62 SW6       30.36R
$$

VAZ020-022-025-037-045-222300-
WEST CENTRAL AND SOUTHWEST VIRGINIA

CITY           SKY/WX    TMP DP  RH WIND       PRES   REMARKS
STAUNTON*      CLOUDY    47  41  79 N8        30.48R
WAYNESBORO*    CLOUDY    48  43  81 N7G17     30.45R
HOT SPRINGS VA CLOUDY    60  51  72 W14       30.46R
LYNCHBURG      FAIR      75  60  59 S10       30.33R
DANVILLE       FAIR      74  62  66 S9G17     30.34S
SOUTH BOSTON*  FAIR      75  60  58 S8        30.35S
MARTINSVILLE   FAIR      76  59  55 SW5       30.37R
ROANOKE        FAIR      78  59  51 SE15      30.32R
BLACKSBURG     FAIR      76  54  45 CALM      30.38S
DUBLIN*        PTSUNNY   76  52  42 W9        30.37R
MARION*        FAIR      76  49  39 CALM      30.40S
HILLSVILLE*    PTSUNNY   70  60  71 S6        30.39R
RICHLANDS*     FAIR      71  54  55 SW5       30.39S
WISE*          FAIR      70  55  60 SW6       30.40R
ABINGDON*      FAIR      76  55  48 W9        30.37S
$$

MDZ021>025-VAZ099-100-222300-
SOUTHERN MARYLAND AND THE DELMARVA PENINSULA

CITY           SKY/WX    TMP DP  RH WIND       PRES   REMARKS
PATUXENT RIVER CLOUDY    48  47  96 N15       30.47R
BAY BRIDGE APT DRIZZLE   46  45  93 NE8       30.52R FOG
LEONARDTOWN    CLOUDY    46  43  87 N6        30.48R
DOVER          LGT RAIN  45  43  93 N18       30.54R FOG
GEORGETOWN     LGT RAIN  45  43  93 NE17      30.50R FOG
EASTON         CLOUDY    46  45  93 NE12      30.54R FOG
CAMBRIDGE      CLOUDY    46  45  93 NE9G16    30.49R FOG
SALISBURY      CLOUDY    46  44  93 NE10      30.47R
OCEAN CITY     CLOUDY    44  44 100 NE10      30.47R FOG
WALLOPS ISLAND CLOUDY    50  47  89 NE16      30.44R
ACCOMACK*      CLOUDY    53  50  88 E6        30.41R
$$

NCZ012>017-030>032-222300-
NORTH CENTRAL AND EASTERN NORTH CAROLINA

CITY           SKY/WX    TMP DP  RH WIND       PRES   REMARKS
ROANOKE RAPIDS FAIR      75  61  60 SW10      30.37R
RALEIGH        FAIR      77  62  59 S12       30.37S
ELIZABETH CITY FAIR      76  64  66 SW12      30.38S
AHOSKIE*       FAIR      74  60  60 S3        30.38R
EDENTON*       FAIR      77  64  63 SW5       30.39F
CURRITUCK*     FAIR      73  59  60 SW13      30.39S
KILL DEVIL HLS FAIR      71  60  68 CALM      30.39R
MANTEO         FAIR      67  60  75 S10       30.40S
CAPE HATTERAS  FAIR      69  64  84 VRB6      30.43R
TARBORO*       NOT AVBL
GOLDSBORO      FAIR      78  61  55 SW9       30.37F
WASHINGTON     FAIR      78  62  58 CALM      30.39S
GREENVILLE     FAIR      77  61  57 SW7       30.39S
NEW BERN       FAIR      75  62  64 S13       30.41R
WILMINGTON     FAIR      76  60  57 S12       30.41S
$$

VAZ048-222300-
ELSEWHERE

CITY           SKY/WX    TMP DP  RH WIND       PRES   REMARKS
HARRISBURG PA  CLOUDY    41  37  86 NE6       30.59R
BALTIMORE      DRIZZLE   46  46 100 NE10      30.53R FOG
ANNAPOLIS      CLOUDY    47  46  97 NE12G20   30.52R FOG
ANDREWS AFB    LGT RAIN  46  45  93 NE12      30.50R FOG
PHILADELPHIA   LGT RAIN  40  38  93 NE14      30.60R FOG
HENDERSON NC   FAIR      72  58  62 SW12      30.37R
GREENSBORO     FAIR      74  62  66 SW14      30.35F
ROCKY MOUNT    FAIR      76  60  57 SW9       30.38S
$$

VAZ100-222300-
MARINE

STATION/POSITION TIME  TEMP    WIND        PRES    WAVE   SWELL
                       AIR SEA DIR/SP/G            HT/PER HT/PER
                 (UTC) (F)     (DEG/KT/KT) (MB)    (FT/S) (FT/S)
BRANDYWINE LGT   2142   43      40/ 23/ 24 1033.7R
CAPE MAY NJ      2148   43 45   40/  7/ 12 1033.2R
LEWES DE         2142   43 46   40/ 16/ 19 1033.0R
15NM E FENWICK I 2150   44 43   20/ 17/ 19 1031.2R   4/ 5   2/14
OCEAN-CITY-INLET 2142   43 41   30/ 10/ 17 1032.0R
WACHAPREAGUE VA  2142   49 58   40/ 14/ 18 1029.7R
THOMAS POINT MD  2200   45 42   40/ 10/ 10   N/A
GOOSES REEF MD   2200   45 43   70/ 14/ 16 1032.6    1/ 2
COVE POINT MD    2142   46      30/ 16/ 18 1032.4R
SOLOMONS ISLAND  2142   48 44   10/ 11/ 14 1031.6R
BISHOPS HEAD MD  2142   48 52   30/ 14/ 18 1031.7R
PINEY POINT MD   2142           40/  9/ 11   N/A
POTOMAC MD       2200   46 42  260/ 12/ 16 1030.7
CAMBRIDGE MD     2142   47 49              1033.0R
LEWISETTA VA     2142   48 51   40/  6/  9 1031.1R
RAPPAHANNOCK LGT 2142           50/ 12/ 12 1029.8R
YORK RVR RNG VA  2142           70/ 15/ 17 1028.8R
YORKTOWN VA      2142   75 48  230/  6/ 10 1027.6R
DOMINION TERM VA 2142   67     240/  8/ 10 1028.3R
KIPTOPEKE VA     2142      46   70/ 15/ 17   N/A
CAPE HENRY VA    2142          340/  7/ 13   N/A
WILLOUBY STN VA  2142   70     240/ 10/ 12 1028.1R
S CRANEY ISL VA  2142   76     210/ 10/ 13 1027.8S
CAPE HENRY BUOY  2200      47                N/A     2/14   2/14
CAPE CHARLES BUO 2151      46                N/A     2/15   2/15
64NM E OF VA BCH 2150   54 51  190/ 10/ 10 1030.0S   3/13   3/13
DUCK PIER NC     2142   62 45  120/  7/  8 1028.9R
44100 DUCK FRF   2145      49                N/A     3/13   2/13
44056 DUCK FRF   2200      49                N/A     3/13   2/13
OREGON INLET NC  2142   65 65  180/ 12/ 14 1029.7R
HATTERAS NC      2142   68 60  210/  5/  8 1030.2R
DIAMOND SHLS NC  2150   73 76  260/ 10/ 14 1030.9R   4/14   3/14
CAPE LOOKOUT NC  2200          210/  7/  8 1030.6F
$$



USA.gov is the U.S. government's official web portal to all federal, state and local government web resources and services.